Station WIXA2 - Whittier AMHS, AK Image indicating link to RSS feed of recent meteorological observations for station WIXA2


Conditions at WIXA2 as of
(12:04 am AKDT)
0804 GMT on 04/22/2024:
     

Click on the graph icon in the table below to see a time series plot of the last five days of that observation.

5-day plot - Wind Direction Wind Direction (WDIR):ENE ( 70 deg true )
5-day plot - Wind Speed Wind Speed (WSPD): 7 kts
5-day plot - Wind Gust Wind Gust (GST): 10 kts
5-day plot - Atmospheric Pressure Atmospheric Pressure (PRES):30.00 in
5-day plot - Air Temperature Air Temperature (ATMP): 39.9 °F
5-day plot - Wind Chill Wind Chill (CHILL): 34.5 °F
5-day plot - Wind Speed at 10 Meters Wind Speed at 10 meters (WSPD10M): 8 kts
5-day plot - Wind Speed at 20 Meters Wind Speed at 20 meters (WSPD20M): 8 kts
5-day plot -  Wind Speed, Wind Gust and Atmospheric Pressure Combined plot of Wind Speed, Gust, and Air Pressure
Previous observations
TIME
(AKDT)
5-day plot - Wind Direction
WDIR
 
5-day plot - Wind Speed
WSPD
kts
5-day plot - Wind Gust
GST
kts
5-day plot - Wave Height
WVHT
ft
5-day plot - Dominant Wave Period
DPD
sec
5-day plot - Average Wave Period
APD
sec
5-day plot - Mean Wave Direction
MWD
 
5-day plot - Atmospheric Pressure
PRES
in
5-day plot - Pressure Tendency
PTDY
in
5-day plot - Air Temperature
ATMP
°F
5-day plot - Water Temperature
WTMP
°F
5-day plot - Dew Point
DEWP
°F
5-day plot - Salinity
SAL
psu
5-day plot - Visibility
VIS
nmi
5-day plot - Tide (above MLLW)
TIDE
ft
2024-04-21 11:54 pmENE 6 10----30.01- 39.7-----
2024-04-21 11:44 pmENE 5 9----30.00- 39.7-----
2024-04-21 11:34 pmENE 6 11----30.00- 39.7-----
2024-04-21 11:25 pmENE 7 11----29.99- 40.1-----
2024-04-21 11:15 pmENE 7 10----29.99- 40.1-----
2024-04-21 11:04 pmENE 8 13----29.99- 40.3-----
2024-04-21 10:54 pmENE 6 11----29.99- 40.5-----
2024-04-21 10:44 pm E 4 11----29.98- 40.3-----
2024-04-21 10:34 pm E 5 10----29.98- 40.3-----
2024-04-21 10:24 pm E 3 8----29.98- 39.9-----
2024-04-21 10:14 pm E 5 8----29.98- 40.1-----
2024-04-21 10:04 pmENE 5 10----29.97- 40.1-----
2024-04-21 09:54 pmENE 5 12----29.97- 40.3-----
2024-04-21 09:44 pm E 4 9----29.96- 40.5-----
2024-04-21 09:34 pmENE 7 12----29.96- 40.8-----
2024-04-21 09:24 pm E 5 11----29.96- 40.6-----
2024-04-21 09:15 pm E 6 11----29.96- 40.3-----
2024-04-21 09:04 pmESE 5 11----29.95- 40.3-----
2024-04-21 08:54 pmESE 6 12----29.95- 40.1-----
2024-04-21 08:45 pm E 6 11----29.95- 40.1-----
2024-04-21 08:35 pm E 7 14----29.94- 40.1-----
2024-04-21 08:25 pm E 7 11----29.94- 39.9-----
2024-04-21 08:15 pm E 6 11----29.93- 39.9-----
2024-04-21 08:04 pm E 3 6----29.93- 40.1-----
2024-04-21 07:54 pmENE 6 13----29.93- 40.5-----
2024-04-21 07:44 pmENE 10 15----29.93- 40.8-----
2024-04-21 07:34 pm E 10 15----29.92- 40.8-----
2024-04-21 07:24 pm E 8 13----29.92- 40.6-----
2024-04-21 07:14 pmENE 7 12----29.92- 40.5-----
2024-04-21 06:54 pm E 6 12----29.92- 40.3-----
2024-04-21 06:44 pm E 6 10----29.92- 40.5-----
2024-04-21 06:34 pm E 6 13----29.91- 40.3-----
2024-04-21 06:14 pm E 7 13----29.91- 40.3-----
2024-04-21 06:04 pmENE 11 19----29.91- 40.5-----
2024-04-21 05:55 pm NE 13 20----29.91- 40.8-----
2024-04-21 05:44 pm NE 14 21----29.91- 40.8-----
2024-04-21 05:34 pmENE 9 18----29.91- 40.5-----
2024-04-21 05:25 pmENE 10 17----29.91- 40.5-----
2024-04-21 05:15 pmENE 9 14----29.91- 40.5-----
2024-04-21 05:04 pm E 9 15----29.90- 40.5-----
2024-04-21 04:54 pm E 9 17----29.90- 40.5-----
2024-04-21 04:44 pm E 9 15----29.89- 40.6-----
2024-04-21 04:24 pm E 7 13----29.89- 41.0-----
2024-04-21 04:14 pm E 6 12----29.88- 41.2-----
2024-04-21 03:54 pm E 7 12----29.88- 41.0-----
2024-04-21 03:44 pmESE 5 10----29.88- 40.8-----
2024-04-21 03:34 pmESE 3 5----29.88- 40.8-----
2024-04-21 03:24 pm S 2 4----29.88- 40.6-----
2024-04-21 03:14 pmSSW 2 3----29.88- 40.5-----
2024-04-21 03:05 pm SW 3 6----29.88- 40.1-----
2024-04-21 02:54 pm S 4 7----29.88- 40.1-----
2024-04-21 02:44 pmESE 4 8----29.88- 40.1-----
2024-04-21 02:35 pm E 3 5----29.88- 40.3-----
2024-04-21 02:25 pmENE 5 8----29.88- 40.5-----
2024-04-21 02:15 pm SE 5 9----29.88- 40.3-----
2024-04-21 02:05 pmSSE 5 8----29.88- 40.3-----
2024-04-21 01:54 pmSSE 4 6----29.88- 40.3-----
2024-04-21 01:44 pm SE 4 6----29.88- 40.5-----
2024-04-21 01:35 pm SE 5 9----29.88- 40.8-----
2024-04-21 01:25 pm E 8 13----29.87- 42.3-----
2024-04-21 01:05 pmENE 6 18----29.85- 43.3-----
2024-04-21 12:54 pm N 3 5----29.85- 43.2-----
2024-04-21 12:44 pm N 1 3----29.84- 43.9-----
2024-04-21 12:34 pm NW 2 4----29.84- 43.5-----
2024-04-21 12:25 pmNNE 1 2----29.83- 44.4-----
2024-04-21 12:05 pm NE 2 3----29.83- 43.5-----
2024-04-21 11:54 amNNE 2 4----29.83- 43.9-----
2024-04-21 11:25 am N 2 4----29.83- 43.2-----
2024-04-21 11:15 am- 0 2----29.82- 42.4-----
2024-04-21 11:04 am N 3 4----29.82- 41.7-----
2024-04-21 10:54 am- 0 2----29.82- 43.5-----
2024-04-21 10:45 amNNE 1 3----29.81- 41.4-----
2024-04-21 10:35 am N 2 3----29.81- 41.2-----
2024-04-21 10:24 amNNW 1 2----29.81- 40.5-----
2024-04-21 10:15 am- 0 1----29.80- 40.5-----
2024-04-21 10:04 am- 0 3----29.80- 39.2-----
2024-04-21 09:45 am- 0 2----29.80- 39.7-----
2024-04-21 09:34 am SW 1 2----29.79- 39.4-----
2024-04-21 09:15 am- 0 2----29.79- 38.1-----
2024-04-21 09:05 amENE 2 3----29.79- 37.4-----
2024-04-21 08:55 amNNE 2 3----29.79- 37.8-----
2024-04-21 08:45 amNNE 1 3----29.78- 38.3-----
2024-04-21 08:35 am S 2 2----29.78- 37.4-----
2024-04-21 08:25 am W 1 3----29.78- 36.9-----
2024-04-21 08:05 am S 2 3----29.78- 37.0-----
2024-04-21 07:54 amSSE 1 2----29.78- 36.7-----
2024-04-21 07:44 am W 2 3----29.78- 36.5-----
2024-04-21 07:34 am- 0 2----29.78- 36.9-----
2024-04-21 07:24 am- 0 1----29.78- 37.0-----
2024-04-21 07:14 am- 0 1----29.77- 36.7-----
2024-04-21 07:04 am SE 1 2----29.78- 36.5-----
2024-04-21 06:54 am- 0 2----29.77- 36.3-----
2024-04-21 06:44 amNNE 1 2----29.77- 36.3-----
2024-04-21 06:34 am E 1 2----29.77- 36.1-----
2024-04-21 06:25 am- 0 1----29.77- 36.1-----
2024-04-21 06:04 amSSW 2 3----29.77- 36.1-----
2024-04-21 05:55 amSSW 2 3----29.77- 35.8-----
2024-04-21 05:44 am- 0 2----29.77- 36.5-----
2024-04-21 05:34 am N 1 2----29.77- 37.0-----
2024-04-21 05:25 am- 0 2----29.77- 37.0-----
2024-04-21 05:15 am NE 1 2----29.77- 37.0-----
2024-04-21 05:04 amESE 1 2----29.77- 37.0-----
2024-04-21 04:55 amWSW 1 2----29.76- 37.2-----
2024-04-21 04:44 am S 1 2----29.77- 37.4-----
2024-04-21 04:34 am S 1 3----29.77- 36.9-----
2024-04-21 04:14 am- 0 2----29.77- 37.0-----
2024-04-21 03:44 am- 0 2----29.78- 37.2-----
2024-04-21 03:34 am- 0 2----29.78- 37.4-----
2024-04-21 03:24 am- 0 2----29.78- 37.4-----
2024-04-21 03:14 am E 1 2----29.78- 37.6-----
2024-04-21 03:04 am E 1 2----29.78- 37.8-----
2024-04-21 02:54 am- 0 1----29.77- 37.8-----
2024-04-21 02:44 am- 0 2----29.77- 38.1-----
2024-04-21 02:34 am S 1 2----29.77- 38.1-----
2024-04-21 02:25 amSSW 1 2----29.77- 38.3-----
2024-04-21 02:15 amSSW 1 2----29.77- 38.1-----
2024-04-21 01:54 amSSW 1 2----29.77- 38.7-----
2024-04-21 01:44 am- 0 2----29.77- 39.0-----
2024-04-21 01:35 am- 0 2----29.77- 39.0-----
2024-04-21 01:24 amSSE 1 2----29.77- 39.2-----
2024-04-21 01:14 am- 0 1----29.77- 39.4-----
2024-04-21 01:05 am- 0 2----29.77- 39.6-----
2024-04-21 12:54 am- 0 2----29.77- 39.7-----
2024-04-21 12:44 amSSW 1 2----29.77- 39.9-----
2024-04-21 12:35 amSSW 1 1----29.77- 39.9-----
2024-04-21 12:15 am- 0 2----29.77- 40.3-----
2024-04-21 12:04 amSSW 1 2----29.77- 40.3-----
2024-04-20 11:54 pm- 0 1----29.77- 40.6-----